DLH3NX EDDF-ENGM

Flight info

Callsign DLH3NX
Flight time 1h 46m
Altitude 37000
Route MARUN3W MARUN Y150 TOLGI DCT ALASA DCT INVOL DCT SABAK/N0438F380 L997 LUNIP
Aircraft A320/M-SDE2E3FGIJ1LORWXYZ/HB1

Departure

Time 2026-05-07 12:25
Airport Frankfurt Main Airport (EDDF)

Arrival

Time 2026-05-07 14:11
Airport Oslo-Gardermoen International Airport (ENGM)
Time Latitude Longitude Altitude Speed Heading
2026-05-07 11:54 50.04923 8.58945 363 ft 0 kts 160°
2026-05-07 12:16 50.04939 8.58936 365 ft 4 kts 160°
2026-05-07 12:17 50.04960 8.58924 364 ft 2 kts 160°
2026-05-07 12:17 50.04982 8.58919 363 ft 4 kts 217°
2026-05-07 12:17 50.04995 8.58949 363 ft 3 kts 250°
2026-05-07 12:17 50.05004 8.58985 364 ft 2 kts 250°
2026-05-07 12:18 50.05004 8.58987 364 ft 1 kts 250°
2026-05-07 12:19 50.05004 8.58986 364 ft 0 kts 250°
2026-05-07 12:21 50.05002 8.58980 360 ft 2 kts 250°
2026-05-07 12:22 50.04991 8.58930 360 ft 8 kts 250°
2026-05-07 12:22 50.04966 8.58827 364 ft 11 kts 250°
2026-05-07 12:22 50.04936 8.58707 362 ft 11 kts 241°
2026-05-07 12:22 50.04880 8.58688 366 ft 7 kts 164°
2026-05-07 12:23 50.04837 8.58713 364 ft 8 kts 159°
2026-05-07 12:23 50.04775 8.58750 370 ft 11 kts 159°
2026-05-07 12:23 50.04699 8.58769 370 ft 10 kts 184°
2026-05-07 12:23 50.04639 8.58759 370 ft 9 kts 187°
2026-05-07 12:24 50.04582 8.58713 371 ft 11 kts 219°
2026-05-07 12:24 50.04506 8.58617 371 ft 18 kts 222°
2026-05-07 12:24 50.04431 8.58356 373 ft 48 kts 249°
2026-05-07 12:24 50.04229 8.57512 364 ft 115 kts 249°
2026-05-07 12:25 50.03889 8.56087 373 ft 163 kts 250°
2026-05-07 12:25 50.03498 8.54434 1099 ft 161 kts 250°
2026-05-07 12:25 50.03105 8.52789 1853 ft 167 kts 251°
2026-05-07 12:25 50.02668 8.50994 2332 ft 189 kts 248°
2026-05-07 12:26 50.01859 8.49252 2910 ft 207 kts 223°
2026-05-07 12:26 50.01059 8.48428 3383 ft 211 kts 206°
2026-05-07 12:26 49.99604 8.47865 4100 ft 215 kts 189°
2026-05-07 12:26 49.98117 8.47540 4801 ft 216 kts 189°
2026-05-07 12:27 49.96133 8.47082 5654 ft 219 kts 195°
2026-05-07 12:27 49.94615 8.46414 6050 ft 238 kts 198°
2026-05-07 12:27 49.93509 8.45903 6384 ft 250 kts 198°
2026-05-07 12:27 49.91927 8.44748 7098 ft 254 kts 222°
2026-05-07 12:28 49.90886 8.42575 7931 ft 253 kts 251°
2026-05-07 12:28 49.90652 8.39901 8822 ft 253 kts 279°
2026-05-07 12:28 49.91269 8.37372 9720 ft 254 kts 307°
2026-05-07 12:28 49.92612 8.35605 10517 ft 258 kts 333°
2026-05-07 12:29 49.94307 8.34464 11000 ft 277 kts 336°
2026-05-07 12:29 49.96162 8.33269 11268 ft 301 kts 336°
2026-05-07 12:29 49.98164 8.31989 11644 ft 319 kts 336°
2026-05-07 12:29 50.00235 8.30660 12339 ft 325 kts 336°
2026-05-07 12:30 50.02367 8.29407 13091 ft 330 kts 343°
2026-05-07 12:30 50.04646 8.28819 13845 ft 336 kts 356°
2026-05-07 12:30 50.06991 8.29053 14512 ft 341 kts
2026-05-07 12:30 50.09287 8.30078 15180 ft 346 kts 17°
2026-05-07 12:31 50.11578 8.31288 15867 ft 350 kts 17°
2026-05-07 12:31 50.13891 8.32507 16548 ft 353 kts 17°
2026-05-07 12:31 50.16229 8.33735 17217 ft 356 kts 17°
2026-05-07 12:31 50.18594 8.34972 17870 ft 360 kts 17°
2026-05-07 12:32 50.20982 8.36221 18494 ft 364 kts 17°
2026-05-07 12:32 50.23359 8.37470 19040 ft 367 kts 17°
2026-05-07 12:32 50.25793 8.38757 19609 ft 370 kts 17°
2026-05-07 12:32 50.28245 8.40055 20180 ft 374 kts 17°
2026-05-07 12:33 50.33203 8.42706 21282 ft 380 kts 18°
2026-05-07 12:33 50.35713 8.44075 21830 ft 383 kts 18°
2026-05-07 12:33 50.38236 8.45460 22353 ft 386 kts 18°
2026-05-07 12:34 50.40780 8.46856 22874 ft 389 kts 18°
2026-05-07 12:34 50.43345 8.48263 23375 ft 392 kts 18°
2026-05-07 12:34 50.45934 8.49686 23836 ft 396 kts 18°
2026-05-07 12:34 50.48544 8.51105 24274 ft 398 kts 18°
2026-05-07 12:35 50.51191 8.52444 24687 ft 400 kts 16°
2026-05-07 12:35 50.53862 8.53717 25112 ft 403 kts 15°
2026-05-07 12:35 50.56558 8.54962 25533 ft 405 kts 15°
2026-05-07 12:35 50.59271 8.56212 25933 ft 408 kts 16°
2026-05-07 12:36 50.62006 8.57488 26333 ft 411 kts 16°
2026-05-07 12:36 50.64753 8.58791 26735 ft 413 kts 16°
2026-05-07 12:36 50.67512 8.60115 27131 ft 416 kts 17°
2026-05-07 12:36 50.70284 8.61453 27523 ft 418 kts 17°
2026-05-07 12:37 50.73073 8.62806 27909 ft 420 kts 17°
2026-05-07 12:37 50.75877 8.64170 28302 ft 423 kts 17°
2026-05-07 12:37 50.78653 8.65725 28658 ft 425 kts 24°
2026-05-07 12:37 50.81251 8.67980 29029 ft 428 kts 34°
2026-05-07 12:38 50.83592 8.70906 29394 ft 430 kts 43°
2026-05-07 12:38 50.85602 8.74427 29751 ft 433 kts 52°
2026-05-07 12:38 50.87426 8.78236 30100 ft 435 kts 52°
2026-05-07 12:38 50.89259 8.82061 30387 ft 437 kts 52°
2026-05-07 12:39 50.91100 8.85911 30670 ft 440 kts 52°
2026-05-07 12:39 50.92952 8.89790 30934 ft 442 kts 52°
2026-05-07 12:39 50.94813 8.93684 31204 ft 444 kts 52°
2026-05-07 12:39 50.96685 8.97597 31459 ft 447 kts 52°
2026-05-07 12:40 50.98561 9.01524 31822 ft 446 kts 52°
2026-05-07 12:40 51.00427 9.05456 32202 ft 445 kts 52°
2026-05-07 12:40 51.02287 9.09386 32586 ft 445 kts 52°
2026-05-07 12:40 51.04144 9.13320 32943 ft 445 kts 52°
2026-05-07 12:41 51.06001 9.17257 33304 ft 445 kts 52°
2026-05-07 12:41 51.07898 9.21141 33644 ft 445 kts 47°
2026-05-07 12:41 51.10112 9.24554 34000 ft 443 kts 37°
2026-05-07 12:41 51.12648 9.27318 34283 ft 442 kts 28°
2026-05-07 12:42 51.15432 9.29368 34526 ft 441 kts 18°
2026-05-07 12:42 51.18384 9.30673 34754 ft 441 kts 11°
2026-05-07 12:42 51.21391 9.31691 34989 ft 442 kts 11°
2026-05-07 12:42 51.24396 9.32727 35197 ft 443 kts 11°
2026-05-07 12:43 51.27414 9.33782 35425 ft 444 kts 11°
2026-05-07 12:43 51.30437 9.34845 35637 ft 445 kts 11°
2026-05-07 12:43 51.33469 9.35910 35845 ft 447 kts 11°
2026-05-07 12:43 51.36506 9.36971 36078 ft 447 kts 11°
2026-05-07 12:44 51.39549 9.38032 36261 ft 448 kts 11°
2026-05-07 12:44 51.42600 9.39096 36496 ft 449 kts 11°
2026-05-07 12:44 51.45652 9.40155 36729 ft 449 kts 11°
2026-05-07 12:44 51.48712 9.41215 36943 ft 450 kts 11°
2026-05-07 12:45 51.54813 9.43346 37031 ft 447 kts 11°
2026-05-07 12:45 51.60883 9.45488 37037 ft 446 kts 11°
2026-05-07 12:46 51.66907 9.47618 37045 ft 446 kts 11°
2026-05-07 12:46 51.72971 9.49747 37048 ft 446 kts 11°
2026-05-07 12:47 51.79038 9.51892 37055 ft 446 kts 11°
2026-05-07 12:47 51.85145 9.53602 37062 ft 445 kts
2026-05-07 12:48 51.91315 9.54429 37064 ft 445 kts
2026-05-07 12:48 51.97490 9.55254 37063 ft 445 kts
2026-05-07 12:49 52.03669 9.56100 37065 ft 446 kts
2026-05-07 12:49 52.09848 9.56943 37071 ft 446 kts
2026-05-07 12:50 52.16027 9.57784 37081 ft 446 kts
2026-05-07 12:50 52.22207 9.58620 37085 ft 445 kts
2026-05-07 12:51 52.28382 9.59454 37085 ft 445 kts
2026-05-07 12:51 52.34551 9.60296 37085 ft 445 kts
2026-05-07 12:52 52.40723 9.61148 37088 ft 445 kts
2026-05-07 12:52 52.46889 9.62001 37089 ft 445 kts
2026-05-07 12:53 52.53060 9.62864 37092 ft 445 kts
2026-05-07 12:53 52.59229 9.63721 37090 ft 445 kts
2026-05-07 12:54 52.65398 9.64581 37088 ft 445 kts
2026-05-07 12:54 52.71570 9.65439 37085 ft 445 kts
2026-05-07 12:55 52.77733 9.66297 37081 ft 445 kts
2026-05-07 12:55 52.83858 9.67145 37085 ft 445 kts
2026-05-07 12:56 52.90030 9.68022 37087 ft 445 kts
2026-05-07 12:56 52.96200 9.68896 37080 ft 445 kts
2026-05-07 12:57 53.02372 9.69764 37082 ft 445 kts
2026-05-07 12:57 53.08546 9.70640 37079 ft 445 kts
2026-05-07 12:58 53.14719 9.71517 37075 ft 445 kts
2026-05-07 12:58 53.20888 9.72404 37075 ft 445 kts
2026-05-07 12:59 53.27055 9.73290 37075 ft 445 kts
2026-05-07 12:59 53.33218 9.74181 37073 ft 445 kts
2026-05-07 13:00 53.39388 9.75063 37075 ft 445 kts
2026-05-07 13:00 53.45554 9.75950 37085 ft 445 kts
2026-05-07 13:01 53.51719 9.76839 37088 ft 445 kts
2026-05-07 13:01 53.57882 9.77737 37088 ft 445 kts
2026-05-07 13:02 53.64048 9.78642 37086 ft 445 kts
2026-05-07 13:02 53.70216 9.79547 37077 ft 445 kts
2026-05-07 13:03 53.76384 9.80440 37074 ft 445 kts
2026-05-07 13:03 53.82551 9.81332 37074 ft 445 kts
2026-05-07 13:04 53.88717 9.82244 37077 ft 445 kts
2026-05-07 13:04 53.94881 9.83156 37078 ft 445 kts
2026-05-07 13:05 54.01043 9.84067 37078 ft 444 kts
2026-05-07 13:05 54.07205 9.84986 37083 ft 444 kts
2026-05-07 13:06 54.13363 9.85910 37093 ft 444 kts
2026-05-07 13:06 54.19522 9.86839 37095 ft 444 kts
2026-05-07 13:07 54.25674 9.87761 37111 ft 444 kts
2026-05-07 13:07 54.31831 9.88686 37116 ft 444 kts
2026-05-07 13:08 54.37984 9.89610 37126 ft 443 kts
2026-05-07 13:08 54.44127 9.90537 37128 ft 443 kts
2026-05-07 13:09 54.50217 9.91459 37124 ft 442 kts
2026-05-07 13:09 54.56339 9.92394 37121 ft 442 kts
2026-05-07 13:10 54.62461 9.93328 37130 ft 441 kts
2026-05-07 13:10 54.68569 9.94265 37132 ft 440 kts
2026-05-07 13:11 54.74664 9.95216 37129 ft 440 kts
2026-05-07 13:11 54.80750 9.96230 37124 ft 439 kts
2026-05-07 13:12 54.86712 9.98566 37125 ft 439 kts 12°
2026-05-07 13:12 54.91656 10.00606 37129 ft 439 kts 12°
2026-05-07 13:13 54.97597 10.03061 37124 ft 439 kts 12°
2026-05-07 13:13 55.03533 10.05516 37122 ft 438 kts 12°
2026-05-07 13:14 55.09462 10.07979 37120 ft 438 kts 12°
2026-05-07 13:14 55.15392 10.10451 37125 ft 438 kts 12°
2026-05-07 13:15 55.21316 10.12922 37121 ft 438 kts 12°
2026-05-07 13:15 55.27238 10.15400 37119 ft 437 kts 12°
2026-05-07 13:16 55.33155 10.17891 37118 ft 437 kts 12°
2026-05-07 13:16 55.39072 10.20396 37121 ft 437 kts 12°
2026-05-07 13:17 55.44982 10.22895 37120 ft 437 kts 12°
2026-05-07 13:17 55.50889 10.25404 37122 ft 436 kts 12°
2026-05-07 13:18 55.56753 10.27899 37117 ft 436 kts 12°
2026-05-07 13:18 55.62659 10.30420 37119 ft 437 kts 12°
2026-05-07 13:19 55.68564 10.32949 37121 ft 436 kts 12°
2026-05-07 13:19 55.74463 10.35486 37115 ft 436 kts 12°
2026-05-07 13:20 55.80364 10.38039 37119 ft 436 kts 12°
2026-05-07 13:20 55.86262 10.40600 37118 ft 437 kts 12°
2026-05-07 13:21 55.92165 10.43165 37125 ft 437 kts 12°
2026-05-07 13:21 55.98074 10.45741 37131 ft 437 kts 12°
2026-05-07 13:22 56.03980 10.48320 37129 ft 437 kts 12°
2026-05-07 13:22 56.09883 10.50898 37125 ft 437 kts 12°
2026-05-07 13:23 56.15745 10.53473 37132 ft 437 kts 12°
2026-05-07 13:23 56.21643 10.56068 37128 ft 436 kts 12°
2026-05-07 13:24 56.27534 10.58674 37124 ft 436 kts 12°
2026-05-07 13:24 56.33416 10.61286 37118 ft 435 kts 12°
2026-05-07 13:25 56.39296 10.63900 37129 ft 435 kts 12°
2026-05-07 13:25 56.45177 10.66521 37147 ft 435 kts 11°
2026-05-07 13:26 56.51050 10.69150 37137 ft 435 kts 12°
2026-05-07 13:26 56.56917 10.71795 37130 ft 435 kts 12°
2026-05-07 13:27 56.62748 10.74420 37122 ft 434 kts 11°
2026-05-07 13:27 56.68614 10.77064 37130 ft 434 kts 11°
2026-05-07 13:28 56.74477 10.79715 37129 ft 434 kts 11°
2026-05-07 13:28 56.80338 10.82380 37131 ft 434 kts 11°
2026-05-07 13:29 56.86191 10.85065 37124 ft 434 kts 11°
2026-05-07 13:29 56.92045 10.87763 37140 ft 434 kts 11°
2026-05-07 13:30 56.97901 10.90453 37134 ft 434 kts 11°
2026-05-07 13:30 57.03762 10.93142 37129 ft 434 kts 11°
2026-05-07 13:31 57.09624 10.95856 37130 ft 435 kts 11°
2026-05-07 13:31 57.15485 10.98583 37130 ft 435 kts 11°
2026-05-07 13:32 57.21309 11.01296 37135 ft 435 kts 11°
2026-05-07 13:32 57.27175 11.04025 37129 ft 435 kts 11°
2026-05-07 13:33 57.33045 11.06772 37127 ft 435 kts 11°
2026-05-07 13:33 57.38911 11.09530 37125 ft 435 kts 11°
2026-05-07 13:34 57.47717 11.13699 37136 ft 436 kts 10°
2026-05-07 13:35 57.53590 11.16479 37122 ft 436 kts 10°
2026-05-07 13:35 57.59468 11.19260 37118 ft 436 kts 10°
2026-05-07 13:36 57.65338 11.22141 37114 ft 438 kts 15°
2026-05-07 13:36 57.70989 11.26527 37135 ft 440 kts 19°
2026-05-07 13:37 57.76587 11.31011 37110 ft 441 kts 19°
2026-05-07 13:37 57.82238 11.35523 37108 ft 442 kts 19°
2026-05-07 13:38 57.87892 11.40066 37113 ft 442 kts 19°
2026-05-07 13:38 57.93551 11.44636 37100 ft 443 kts 19°
2026-05-07 13:39 57.99208 11.49212 37118 ft 443 kts 19°
2026-05-07 13:39 58.04878 11.53819 37124 ft 444 kts 19°
2026-05-07 13:40 58.10547 11.58440 37108 ft 444 kts 19°
2026-05-07 13:40 58.16328 11.62321 37116 ft 437 kts
2026-05-07 13:41 58.22299 11.62823 37112 ft 426 kts 348°
2026-05-07 13:41 58.28133 11.61071 37111 ft 424 kts 346°
2026-05-07 13:42 58.33929 11.59283 37106 ft 425 kts 346°
2026-05-07 13:42 58.39768 11.57479 37107 ft 425 kts 346°
2026-05-07 13:43 58.45605 11.55668 37105 ft 425 kts 346°
2026-05-07 13:43 58.51442 11.53848 37137 ft 425 kts 346°
2026-05-07 13:43 58.54365 11.52933 36959 ft 426 kts 346°
2026-05-07 13:44 58.57284 11.52017 36698 ft 424 kts 346°
2026-05-07 13:44 58.60188 11.51102 36439 ft 423 kts 346°
2026-05-07 13:44 58.63089 11.50188 36186 ft 421 kts 346°
2026-05-07 13:44 58.65967 11.49283 35789 ft 417 kts 346°
2026-05-07 13:45 58.68820 11.48390 35262 ft 414 kts 345°
2026-05-07 13:45 58.71649 11.47496 34746 ft 411 kts 345°
2026-05-07 13:45 58.74464 11.46599 34214 ft 408 kts 345°
2026-05-07 13:45 58.77255 11.45710 33629 ft 405 kts 345°
2026-05-07 13:46 58.80020 11.44831 33112 ft 400 kts 345°
2026-05-07 13:46 58.82753 11.43963 32639 ft 396 kts 345°
2026-05-07 13:46 58.85467 11.43104 32094 ft 393 kts 344°
2026-05-07 13:46 58.88153 11.42261 31597 ft 389 kts 344°
2026-05-07 13:47 58.90815 11.41421 31110 ft 386 kts 344°
2026-05-07 13:47 58.93453 11.40584 30636 ft 382 kts 344°
2026-05-07 13:47 58.96066 11.39748 30163 ft 379 kts 344°
2026-05-07 13:47 58.98617 11.38925 29674 ft 374 kts 344°
2026-05-07 13:48 59.01199 11.38088 29231 ft 368 kts 344°
2026-05-07 13:48 59.03675 11.37285 28808 ft 363 kts 343°
2026-05-07 13:48 59.06146 11.36484 28397 ft 358 kts 344°
2026-05-07 13:48 59.08584 11.35694 27979 ft 353 kts 343°
2026-05-07 13:49 59.10988 11.34915 27592 ft 348 kts 343°
2026-05-07 13:49 59.13399 11.34398 27168 ft 348 kts 348°
2026-05-07 13:49 59.15807 11.34284 26969 ft 342 kts 353°
2026-05-07 13:49 59.18141 11.34369 26887 ft 329 kts 353°
2026-05-07 13:50 59.20423 11.34480 26816 ft 329 kts 353°
2026-05-07 13:50 59.22713 11.34584 26735 ft 330 kts 353°
2026-05-07 13:50 59.25006 11.34688 26661 ft 330 kts 353°
2026-05-07 13:50 59.27299 11.34797 26585 ft 329 kts 353°
2026-05-07 13:51 59.29589 11.34907 26440 ft 329 kts 353°
2026-05-07 13:51 59.31873 11.35017 26076 ft 328 kts 353°
2026-05-07 13:51 59.34147 11.35125 25676 ft 326 kts 353°
2026-05-07 13:51 59.36409 11.35233 25270 ft 325 kts 353°
2026-05-07 13:52 59.38664 11.35338 24859 ft 323 kts 353°
2026-05-07 13:52 59.40910 11.35440 24454 ft 323 kts 353°
2026-05-07 13:52 59.43152 11.35543 24029 ft 322 kts 353°
2026-05-07 13:52 59.45393 11.35644 23604 ft 322 kts 353°
2026-05-07 13:53 59.47629 11.35750 23132 ft 320 kts 354°
2026-05-07 13:53 59.49849 11.35859 22718 ft 318 kts 354°
2026-05-07 13:53 59.52053 11.35964 22306 ft 316 kts 354°
2026-05-07 13:53 59.54290 11.36058 21486 ft 326 kts 354°
2026-05-07 13:54 59.56571 11.36151 20938 ft 329 kts 354°
2026-05-07 13:54 59.58859 11.36254 20501 ft 328 kts 354°
2026-05-07 13:54 59.61138 11.36365 20087 ft 327 kts 355°
2026-05-07 13:54 59.63407 11.36477 19669 ft 325 kts 355°
2026-05-07 13:55 59.65664 11.36588 19276 ft 324 kts 355°
2026-05-07 13:55 59.67910 11.36697 18882 ft 323 kts 355°
2026-05-07 13:55 59.70149 11.36804 18553 ft 321 kts 355°
2026-05-07 13:55 59.72376 11.36907 18165 ft 319 kts 355°
2026-05-07 13:56 59.74590 11.37008 17758 ft 317 kts 355°
2026-05-07 13:56 59.76792 11.37110 17368 ft 316 kts 355°
2026-05-07 13:56 59.78981 11.37216 16988 ft 314 kts 355°
2026-05-07 13:56 59.81162 11.37322 16614 ft 313 kts 356°
2026-05-07 13:57 59.83334 11.37425 16267 ft 311 kts 356°
2026-05-07 13:57 59.85492 11.37529 15912 ft 310 kts 356°
2026-05-07 13:57 59.87640 11.37635 15578 ft 308 kts 356°
2026-05-07 13:57 59.89776 11.37740 15247 ft 306 kts 356°
2026-05-07 13:58 59.91902 11.37842 14920 ft 305 kts 356°
2026-05-07 13:58 59.94019 11.37944 14594 ft 304 kts 357°
2026-05-07 13:58 59.96101 11.38041 14276 ft 302 kts 357°
2026-05-07 13:58 59.98229 11.38140 13995 ft 301 kts 357°
2026-05-07 13:59 60.00269 11.38237 13687 ft 298 kts 357°
2026-05-07 13:59 60.02367 11.38337 13339 ft 296 kts 357°
2026-05-07 13:59 60.04394 11.38428 12987 ft 295 kts 357°
2026-05-07 13:59 60.06466 11.38520 12635 ft 293 kts 358°
2026-05-07 14:00 60.08471 11.38613 12292 ft 291 kts 358°
2026-05-07 14:00 60.10489 11.38710 11945 ft 290 kts 358°
2026-05-07 14:00 60.12499 11.38809 11595 ft 288 kts 358°
2026-05-07 14:00 60.14497 11.38908 11254 ft 286 kts 358°
2026-05-07 14:01 60.16482 11.39007 10916 ft 285 kts 358°
2026-05-07 14:01 60.18457 11.39104 10564 ft 283 kts 358°
2026-05-07 14:01 60.20422 11.39201 10232 ft 282 kts 359°
2026-05-07 14:01 60.22367 11.39300 9795 ft 277 kts 359°
2026-05-07 14:02 60.24287 11.39398 9110 ft 275 kts 359°
2026-05-07 14:02 60.26196 11.39494 8434 ft 274 kts 359°
2026-05-07 14:02 60.28110 11.39585 8018 ft 274 kts 360°
2026-05-07 14:02 60.30015 11.39676 7641 ft 273 kts 360°
2026-05-07 14:03 60.31912 11.39768 7268 ft 272 kts 360°
2026-05-07 14:03 60.33798 11.39856 6873 ft 270 kts
2026-05-07 14:03 60.35652 11.39946 6686 ft 261 kts
2026-05-07 14:03 60.37420 11.40038 6557 ft 248 kts
2026-05-07 14:04 60.39113 11.40126 6372 ft 239 kts 360°
2026-05-07 14:04 60.40765 11.40207 6069 ft 236 kts 360°
2026-05-07 14:04 60.42404 11.40204 5806 ft 235 kts 352°
2026-05-07 14:04 60.43939 11.39217 5544 ft 232 kts 327°
2026-05-07 14:05 60.45081 11.36986 5297 ft 229 kts 300°
2026-05-07 14:05 60.45567 11.33966 5029 ft 227 kts 272°
2026-05-07 14:05 60.45307 11.30841 4819 ft 227 kts 246°
2026-05-07 14:05 60.44755 11.29039 4734 ft 229 kts 228°
2026-05-07 14:06 60.43488 11.27168 4602 ft 223 kts 206°
2026-05-07 14:06 60.42112 11.25839 4463 ft 215 kts 206°
2026-05-07 14:06 60.40783 11.24549 4332 ft 209 kts 204°
2026-05-07 14:06 60.39429 11.23542 4184 ft 207 kts 199°
2026-05-07 14:07 60.38047 11.22688 3925 ft 208 kts 197°
2026-05-07 14:07 60.36654 11.21869 3660 ft 209 kts 197°
2026-05-07 14:07 60.35265 11.21057 3519 ft 205 kts 197°
2026-05-07 14:07 60.33923 11.20274 3484 ft 198 kts 197°
2026-05-07 14:08 60.32605 11.19505 3314 ft 195 kts 198°
2026-05-07 14:08 60.31310 11.18749 3038 ft 192 kts 197°
2026-05-07 14:08 60.30056 11.18020 2793 ft 181 kts 198°
2026-05-07 14:08 60.28900 11.17347 2568 ft 168 kts 198°
2026-05-07 14:09 60.27786 11.16699 2330 ft 165 kts 197°
2026-05-07 14:09 60.26709 11.16072 2100 ft 155 kts 197°
2026-05-07 14:09 60.25717 11.15495 1896 ft 143 kts 197°
2026-05-07 14:09 60.24778 11.14950 1707 ft 139 kts 197°
2026-05-07 14:10 60.23860 11.14418 1503 ft 136 kts 197°
2026-05-07 14:10 60.22949 11.13890 1317 ft 136 kts 197°
2026-05-07 14:10 60.22044 11.13366 1126 ft 134 kts 197°
2026-05-07 14:10 60.21151 11.12846 946 ft 134 kts 197°
2026-05-07 14:11 60.20265 11.12338 766 ft 131 kts 196°
2026-05-07 14:11 60.19431 11.11852 683 ft 109 kts 196°
2026-05-07 14:11 60.18991 11.11600 682 ft 29 kts 195°
2026-05-07 14:11 60.18889 11.11470 684 ft 16 kts 249°
2026-05-07 14:12 60.18901 11.11305 683 ft 7 kts 287°
2026-05-07 14:12 60.18919 11.11209 681 ft 6 kts 305°
2026-05-07 14:12 60.18952 11.11183 683 ft 4 kts 356°
2026-05-07 14:12 60.18995 11.11205 680 ft 9 kts 17°
2026-05-07 14:13 60.19074 11.11250 683 ft 15 kts 15°
2026-05-07 14:13 60.19187 11.11315 683 ft 18 kts 16°
2026-05-07 14:13 60.19303 11.11381 682 ft 17 kts 16°
2026-05-07 14:13 60.19409 11.11443 682 ft 13 kts 16°
2026-05-07 14:14 60.19467 11.11411 681 ft 10 kts 297°
2026-05-07 14:14 60.19484 11.11299 682 ft 8 kts 286°
2026-05-07 14:14 60.19508 11.11131 678 ft 15 kts 286°
2026-05-07 14:14 60.19537 11.10926 681 ft 16 kts 286°
2026-05-07 14:15 60.19570 11.10698 683 ft 18 kts 285°
2026-05-07 14:15 60.19597 11.10501 680 ft 9 kts 284°
2026-05-07 14:15 60.19589 11.10409 682 ft 6 kts 242°
2026-05-07 14:15 60.19582 11.10320 685 ft 6 kts 283°
2026-05-07 14:16 60.19593 11.10243 685 ft 5 kts 286°
2026-05-07 14:16 60.19601 11.10183 685 ft 3 kts 286°
2026-05-07 14:16 60.19603 11.10175 685 ft 0 kts 286°